Location: Newark
(49.8348°N, 24.0280°E)
Time: 12:06:20
(UTC+00:00)

Explorer 7 - Pass Details

Date: 24 January 2020
Orbit: 485 x 679 km, 50.3° (Epoch: 20 February)

Event Time Altitude Azimuth Distance (km) Brightness Sun altitude
Rises 20:54:03 0° 210° (SSW) 2,562 - -53.2°
Reaches altitude 10° 20:56:35 10° 194° (SSW) 1,670 - -53.5°
Maximum altitude 20:59:28 21° 143° (SE) 1,128 - -53.8°
Drops below altitude 10° 21:02:21 10° 93° (E) 1,669 - -54.1°
Sets 21:04:53 0° 77° (ENE) 2,561 - -54.4°
